When you browse on this site, cookies collect data to enhance your experience and personalize the content and advertising you see.
Visit our Privacy Policy to learn more. By continuing to use the site, you agree to this use of cookies and data.
  • In Spain
  • List of Countries
  • For 7 days
  • Water Temperature
  • Weather Map
  • Weather Widgets
  • user-avatar
    Login

    Hourly Weather Puerto Montt

    Today, 28 March, Saturday

    Time Temperature Precipitation Wind Pressure Humidity
    00:00 +12°C° 0.1 mm 0 mps 758 mmHg 95%
    01:00 +12°C° 0 mm 0 mps 758 mmHg 96%
    02:00 +11°C° 0 mm 0 mps 758 mmHg 95%
    03:00 +11°C° 0 mm 0 mps 758 mmHg 94%
    04:00 +11°C° 0 mm 0 mps 759 mmHg 94%
    05:00 +11°C° 0 mm 0 mps 759 mmHg 92%
    06:00 +11°C° 0 mm 0 mps 759 mmHg 90%
    07:00 +11°C° 0 mm 0 mps 759 mmHg 87%
    08:00 +13°C° 0 mm 0 mps 760 mmHg 80%
    09:00 +14°C° 0 mm 0 mps 760 mmHg 74%
    10:00 +15°C° 0 mm 0 mps 760 mmHg 67%
    11:00 +18°C° 0.2 mm 1 mps 760 mmHg 66%
    12:00 +18°C° 0.2 mm 1 mps 761 mmHg 66%
    13:00 +18°C° 0.2 mm 1 mps 761 mmHg 65%
    14:00 +18°C° 0.1 mm 1 mps 761 mmHg 64%
    15:00 +18°C° 0.1 mm 1 mps 761 mmHg 62%
    16:00 +18°C° 0.1 mm 1 mps 761 mmHg 61%
    17:00 +15°C° 0 mm 1 mps 761 mmHg 69%
    18:00 +13°C° 0 mm 1 mps 762 mmHg 76%
    19:00 +11°C° 0 mm 1 mps 762 mmHg 84%
    20:00 +11°C° 0 mm 1 mps 763 mmHg 87%
    21:00 +10°C° 0 mm 1 mps 763 mmHg 89%
    22:00 +10°C° 0 mm 1 mps 764 mmHg 92%
    23:00 +9°C° 0 mm 1 mps 764 mmHg 91%

    Tomorrow, 29 March, Sunday

    Time Temperature Precipitation Wind Pressure Humidity
    00:00 +9°C° 0 mm 1 mps 764 mmHg 91%
    01:00 +9°C° 0 mm 1 mps 764 mmHg 90%
    02:00 +9°C° 0 mm 1 mps 764 mmHg 91%
    03:00 +8°C° 0 mm 1 mps 764 mmHg 91%
    04:00 +8°C° 0 mm 1 mps 764 mmHg 91%
    05:00 +9°C° 0 mm 1 mps 764 mmHg 89%
    06:00 +9°C° 0 mm 1 mps 764 mmHg 88%
    07:00 +9°C° 0 mm 1 mps 765 mmHg 86%
    08:00 +11°C° 0 mm 1 mps 764 mmHg 78%
    09:00 +14°C° 0 mm 1 mps 764 mmHg 70%
    10:00 +16°C° 0 mm 1 mps 764 mmHg 62%
    11:00 +16°C° 0 mm 2 mps 764 mmHg 60%
    12:00 +17°C° 0 mm 2 mps 764 mmHg 57%
    13:00 +17°C° 0 mm 2 mps 764 mmHg 55%
    14:00 +17°C° 0 mm 2 mps 764 mmHg 57%
    15:00 +16°C° 0 mm 2 mps 764 mmHg 59%
    16:00 +16°C° 0 mm 2 mps 764 mmHg 61%
    17:00 +14°C° 0 mm 2 mps 765 mmHg 70%
    18:00 +12°C° 0 mm 2 mps 765 mmHg 78%
    19:00 +9°C° 0 mm 2 mps 766 mmHg 86%
    20:00 +9°C° 0 mm 2 mps 766 mmHg 87%
    21:00 +8°C° 0 mm 2 mps 766 mmHg 88%
    22:00 +8°C° 0 mm 2 mps 767 mmHg 89%
    23:00 +8°C° 0 mm 2 mps 767 mmHg 87%

    Day after tomorrow, 30 March, Monday

    Time Temperature Precipitation Wind Pressure Humidity
    00:00 +8°C° 0 mm 3 mps 766 mmHg 86%
    01:00 +8°C° 0 mm 3 mps 766 mmHg 85%
    02:00 +7°C° 0 mm 3 mps 766 mmHg 84%
    03:00 +7°C° 0 mm 3 mps 766 mmHg 83%
    04:00 +7°C° 0 mm 3 mps 766 mmHg 82%
    05:00 +7°C° 0 mm 3 mps 766 mmHg 81%
    06:00 +7°C° 0 mm 3 mps 766 mmHg 79%
    07:00 +8°C° 0 mm 2 mps 766 mmHg 77%
    08:00 +10°C° 0 mm 3 mps 765 mmHg 69%
    09:00 +12°C° 0 mm 3 mps 765 mmHg 60%
    10:00 +16°C° 0 mm 3 mps 765 mmHg 51%
    11:00 +15°C° 0 mm 4 mps 764 mmHg 51%
    12:00 +17°C° 0 mm 4 mps 764 mmHg 51%
    13:00 +17°C° 0 mm 4 mps 763 mmHg 51%
    14:00 +17°C° 0 mm 4 mps 763 mmHg 55%
    15:00 +15°C° 0 mm 4 mps 763 mmHg 58%
    16:00 +15°C° 0 mm 4 mps 763 mmHg 61%
    17:00 +13°C° 0 mm 3 mps 763 mmHg 69%
    18:00 +11°C° 0 mm 3 mps 763 mmHg 77%
    19:00 +10°C° 0 mm 2 mps 763 mmHg 85%
    20:00 +9°C° 0 mm 3 mps 763 mmHg 86%
    21:00 +9°C° 0 mm 3 mps 763 mmHg 86%
    22:00 +9°C° 0 mm 3 mps 763 mmHg 87%
    23:00 +9°C° 0 mm 3 mps 763 mmHg 87%

    31 March, Tuesday

    Time Temperature Precipitation Wind Pressure Humidity
    00:00 +9°C° 0 mm 3 mps 763 mmHg 88%
    01:00 +9°C° 0 mm 3 mps 762 mmHg 88%
    02:00 +9°C° 0 mm 3 mps 762 mmHg 89%
    03:00 +9°C° 0 mm 3 mps 762 mmHg 90%
    04:00 +8°C° 0 mm 3 mps 762 mmHg 91%
    05:00 +9°C° 0 mm 3 mps 762 mmHg 90%
    06:00 +9°C° 0 mm 3 mps 762 mmHg 89%
    07:00 +9°C° 0 mm 3 mps 762 mmHg 88%
    08:00 +10°C° 0 mm 3 mps 762 mmHg 83%
    09:00 +12°C° 0 mm 4 mps 762 mmHg 78%
    10:00 +13°C° 0 mm 4 mps 762 mmHg 74%
    11:00 +14°C° 0 mm 4 mps 762 mmHg 72%
    12:00 +14°C° 0 mm 4 mps 762 mmHg 71%
    13:00 +14°C° 0 mm 4 mps 762 mmHg 69%
    14:00 +14°C° 0 mm 4 mps 761 mmHg 69%
    15:00 +14°C° 0 mm 4 mps 761 mmHg 69%
    16:00 +14°C° 0 mm 4 mps 761 mmHg 69%
    17:00 +12°C° 0 mm 4 mps 762 mmHg 75%
    18:00 +11°C° 0 mm 3 mps 763 mmHg 81%
    19:00 +10°C° 0 mm 3 mps 763 mmHg 87%
    20:00 +9°C° 0 mm 3 mps 764 mmHg 86%
    21:00 +9°C° 0 mm 3 mps 764 mmHg 86%
    22:00 +9°C° 0 mm 3 mps 764 mmHg 85%
    23:00 +9°C° 0 mm 3 mps 764 mmHg 87%

    1 April, Wednesday

    Time Temperature Precipitation Wind Pressure Humidity
    00:00 +8°C° 0 mm 3 mps 765 mmHg 88%
    01:00 +8°C° 0 mm 2 mps 765 mmHg 90%
    02:00 +8°C° 0 mm 2 mps 765 mmHg 91%
    03:00 +7°C° 0 mm 2 mps 765 mmHg 92%
    04:00 +7°C° 0 mm 2 mps 765 mmHg 93%
    05:00 +7°C° 0 mm 2 mps 766 mmHg 91%
    06:00 +7°C° 0 mm 2 mps 766 mmHg 90%
    07:00 +7°C° 0 mm 2 mps 767 mmHg 88%
    08:00 +10°C° 0 mm 2 mps 766 mmHg 79%
    09:00 +13°C° 0 mm 2 mps 766 mmHg 70%
    10:00 +14°C° 0 mm 3 mps 766 mmHg 60%
    11:00 +16°C° 0 mm 3 mps 766 mmHg 59%
    12:00 +16°C° 0 mm 3 mps 766 mmHg 57%
    13:00 +17°C° 0 mm 3 mps 766 mmHg 55%
    14:00 +16°C° 0 mm 3 mps 766 mmHg 57%
    15:00 +16°C° 0 mm 3 mps 766 mmHg 59%
    16:00 +16°C° 0 mm 3 mps 766 mmHg 60%
    17:00 +13°C° 0 mm 3 mps 767 mmHg 68%
    18:00 +11°C° 0 mm 3 mps 767 mmHg 76%
    19:00 +10°C° 0 mm 2 mps 768 mmHg 84%
    20:00 +10°C° 0 mm 2 mps 768 mmHg 85%
    21:00 +9°C° 0 mm 2 mps 768 mmHg 87%
    22:00 +9°C° 0 mm 2 mps 769 mmHg 88%
    23:00 +9°C° 0 mm 2 mps 769 mmHg 88%

    2 April, Thursday

    Time Temperature Precipitation Wind Pressure Humidity
    00:00 +9°C° 0 mm 2 mps 769 mmHg 87%
    01:00 +9°C° 0 mm 2 mps 768 mmHg 87%
    02:00 +9°C° 0 mm 2 mps 768 mmHg 87%
    03:00 +9°C° 0 mm 2 mps 768 mmHg 87%
    04:00 +9°C° 0 mm 2 mps 768 mmHg 87%
    05:00 +9°C° 0 mm 2 mps 768 mmHg 86%
    06:00 +9°C° 0 mm 2 mps 768 mmHg 85%
    07:00 +9°C° 0 mm 2 mps 768 mmHg 84%
    08:00 +12°C° 0 mm 2 mps 767 mmHg 77%
    09:00 +14°C° 0 mm 3 mps 767 mmHg 69%
    10:00 +17°C° 0 mm 3 mps 766 mmHg 62%
    11:00 +17°C° 0 mm 3 mps 766 mmHg 62%
    12:00 +18°C° 0 mm 3 mps 765 mmHg 61%
    13:00 +18°C° 0 mm 4 mps 765 mmHg 61%
    14:00 +18°C° 0 mm 3 mps 764 mmHg 63%
    15:00 +17°C° 0 mm 3 mps 764 mmHg 65%
    16:00 +16°C° 0 mm 3 mps 764 mmHg 67%
    17:00 +14°C° 0 mm 3 mps 764 mmHg 74%
    18:00 +12°C° 0 mm 3 mps 764 mmHg 81%
    19:00 +10°C° 0 mm 3 mps 764 mmHg 88%
    20:00 +10°C° 0 mm 2 mps 764 mmHg 88%
    21:00 +10°C° 0 mm 2 mps 764 mmHg 88%
    22:00 +10°C° 0 mm 2 mps 764 mmHg 89%
    23:00 +9°C° 0 mm 2 mps 763 mmHg 88%
    Show more